Simultaneous Nadir Overpasses (SNOs) Predictions

Prediction of SNOs between AQUA and METOP-A Satellite Orbit:

Table of predicted SNOs for the next 14.0 days since TLE Epoch: 11/3/2011
Index Date Time (AQUA) AQUA Lat,Lon METOP-A Lat,Lon Distance(km) Time Diff (sec)
1 11/06/2011 10:52:12 73.32, 11.86 73.26, 10.15 55.17 69
2 11/06/2011 11:41:46 -73.77, 178.55 -73.77, 178.66 3.34 11
3 11/06/2011 12:31:14 73.79, -13.86 73.79, -13.95 2.73 60
4 11/06/2011 13:21:37 -76.67, 145.80 -76.59, 161.85 411.68 20
5 11/09/2011 06:26:33 73.68, 77.56 73.63, 77.41 6.49 73
6 11/09/2011 07:15:59 -73.75,-114.96 -73.74,-115.00 1.51 0
7 11/09/2011 08:05:28 73.83, 52.50 73.81, 52.51 1.78 69
8 11/12/2011 01:10:22 -70.70, -18.22 -70.75, -29.19 402.37 22
9 11/12/2011 02:00:45 73.67, 144.01 73.69, 143.96 2.25 63
10 11/12/2011 02:50:12 -73.75, -48.51 -73.75, -48.58 2.16 11
11 11/12/2011 03:39:46 74.09, 118.35 74.12, 119.67 40.23 69
12 11/14/2011 20:44:50 -71.58, 46.82 -71.53, 38.56 290.64 41
13 11/14/2011 21:34:57 73.69,-149.58 73.68,-149.64 2.12 51
14 11/14/2011 22:24:24 -73.76, 17.92 -73.74, 17.82 3.55 23
15 11/14/2011 23:14:07 74.57,-176.35 74.55,-172.79 105.50 63
16 11/17/2011 16:19:13 -72.26, 112.10 -72.23, 106.29 197.04 54
17 11/17/2011 17:09:08 73.72, -83.19 73.72, -83.15 1.44 39




NCC Satellite Simultaneous Nadir Overpasses (SNOs) Prediction Service
